TimeMST,TemperatureF,Dew PointF,Humidity,Sea Level PressureIn,VisibilityMPH,Wind Direction,Wind SpeedMPH,Gust SpeedMPH,PrecipitationIn,Events,Conditions,WindDirDegrees,DateUTC
12:57 AM,99.0,55.0,23,29.75,7.0,East,18.4,29.9,N/A,,Mostly Cloudy,90,2013-08-18 07:57:00
1:57 AM,97.0,55.9,25,29.73,10.0,East,20.7,26.5,N/A,,Mostly Cloudy,90,2013-08-18 08:57:00
2:57 AM,96.1,57.0,27,29.73,10.0,East,18.4,29.9,N/A,,Scattered Clouds,80,2013-08-18 09:57:00
3:57 AM,93.9,57.9,30,29.72,10.0,ENE,15.0,-,N/A,,Scattered Clouds,70,2013-08-18 10:57:00
4:57 AM,93.9,57.9,30,29.73,10.0,East,11.5,-,N/A,,Scattered Clouds,100,2013-08-18 11:57:00
5:57 AM,91.9,59.0,33,29.75,10.0,South,3.5,-,N/A,,Scattered Clouds,170,2013-08-18 12:57:00
6:57 AM,93.9,59.0,31,29.77,10.0,Calm,Calm,-,N/A,,Mostly Cloudy,0,2013-08-18 13:57:00
7:57 AM,93.9,55.9,28,29.78,10.0,Calm,Calm,-,N/A,,Mostly Cloudy,0,2013-08-18 14:57:00
8:57 AM,95.0,57.0,28,29.79,10.0,WSW,3.5,-,N/A,,Mostly Cloudy,250,2013-08-18 15:57:00
9:57 AM,99.0,55.0,23,29.80,10.0,SW,6.9,-,N/A,,Mostly Cloudy,220,2013-08-18 16:57:00
10:57 AM,102.9,55.0,20,29.80,10.0,Variable,3.5,-,N/A,,Mostly Cloudy,0,2013-08-18 17:57:00
11:57 AM,102.9,55.0,20,29.79,10.0,SSW,9.2,-,N/A,,Mostly Cloudy,210,2013-08-18 18:57:00
12:57 PM,104.0,55.9,20,29.77,10.0,South,4.6,-,N/A,,Mostly Cloudy,170,2013-08-18 19:57:00
1:57 PM,107.1,55.9,19,29.75,10.0,Calm,Calm,-,N/A,,Mostly Cloudy,0,2013-08-18 20:57:00
2:57 PM,109.9,57.0,18,29.71,10.0,South,8.1,16.1,N/A,,Mostly Cloudy,180,2013-08-18 21:57:00
3:57 PM,111.0,53.1,15,29.68,10.0,South,12.7,-,N/A,,Scattered Clouds,170,2013-08-18 22:57:00
4:57 PM,109.9,52.0,15,29.67,10.0,South,11.5,-,N/A,,Scattered Clouds,180,2013-08-18 23:57:00
5:57 PM,108.0,53.1,16,29.66,10.0,South,10.4,-,N/A,,Scattered Clouds,190,2013-08-19 00:57:00
6:57 PM,105.1,55.9,20,29.67,10.0,SSW,9.2,-,N/A,,Scattered Clouds,200,2013-08-19 01:57:00
7:57 PM,100.0,57.0,24,29.70,10.0,South,6.9,-,N/A,,Scattered Clouds,170,2013-08-19 02:57:00
8:57 PM,99.0,57.9,25,29.73,10.0,South,11.5,-,N/A,,Scattered Clouds,180,2013-08-19 03:57:00
9:57 PM,93.9,64.0,37,29.75,10.0,South,6.9,-,N/A,,Scattered Clouds,180,2013-08-19 04:57:00
10:57 PM,95.0,57.9,29,29.77,10.0,SSE,10.4,-,N/A,,Scattered Clouds,150,2013-08-19 05:57:00
11:57 PM,93.9,60.1,32,29.77,10.0,SE,11.5,-,N/A,,Scattered Clouds,140,2013-08-19 06:57:00